CW5049 Weather Reports


time (UTC)temp
C
wind
direction
speed
KPH
gust
KPH
rain 1hr
cm
rain 24hr
cm
rain mn
cm
humidity
%
barometer
mb
20260507141547 8 191 3.2 9.7 0.00 0.00 0.00 83 1020.5
20260507140047 8 186 4.8 12.9 0.00 0.00 0.00 83 1020.4
20260507134547 8 161 3.2 8.0 0.00 0.00 0.00 84 1020.2
20260507133042 8 127 1.6 4.8 0.00 0.00 0.00 84 1020.3
20260507131548 8 111 1.6 3.2 0.00 0.00 0.00 85 1020.2
20260507130059 8 0 0.0 6.4 0.00 0.00 0.00 86 1020.2
20260507124607 8 102 1.6 9.7 0.00 0.00 0.00 86 1020.3
20260507123102 8 102 3.2 11.3 0.00 0.00 0.00 85 1020.3
20260507121556 8 93 3.2 8.0 0.00 0.00 0.00 85 1020.4
20260507120051 8 75 3.2 9.7 0.00 0.00 0.00 84 1020.6
20260507114552 8 16 1.6 11.3 0.00 0.00 0.00 84 1020.8
20260507113047 9 55 3.2 9.7 0.00 0.00 0.00 84 1020.7
20260507111547 9 58 3.2 9.7 0.00 0.00 0.00 83 1020.7
20260507110046 9 0 1.6 4.8 0.00 0.00 0.00 81 1020.8
20260507104544 9 32 3.2 6.4 0.00 0.00 0.00 80 1020.8
20260507103041 9 127 1.6 6.4 0.00 0.00 0.00 81 1020.9
20260507101557 9 136 1.6 8.0 0.00 0.00 0.00 81 1020.9
20260507100056 10 118 1.6 9.7 0.00 0.00 0.00 81 1021.0
20260507094548 10 143 3.2 9.7 0.00 0.00 0.00 81 1020.9
20260507093046 10 102 4.8 11.3 0.00 0.00 0.00 81 1020.9
20260507091543 10 186 1.6 12.9 0.00 0.00 0.00 82 1020.9
20260507090047 10 143 1.6 9.7 0.00 0.00 0.00 83 1020.8
20260507084547 10 161 4.8 11.3 0.00 0.00 0.00 84 1020.8
20260507083105 10 131 3.2 11.3 0.00 0.00 0.00 84 1020.8
20260507081557 10 166 6.4 9.7 0.00 0.00 0.00 86 1020.8
20260507080044 10 186 3.2 11.3 0.00 0.00 0.00 88 1020.9
20260507074547 10 149 3.2 11.3 0.00 0.00 0.00 87 1020.8
20260507073053 10 115 4.8 11.3 0.00 0.00 0.00 85 1020.8
20260507071542 10 149 8.0 16.1 0.00 0.00 0.00 83 1020.8
20260507070043 10 147 8.0 14.5 0.00 0.00 0.00 82 1020.8
20260507064549 11 161 3.2 8.0 0.00 0.00 0.00 83 1020.7
20260507063050 11 180 1.6 9.7 0.00 0.00 0.00 83 1020.7
20260507061547 11 166 6.4 12.9 0.00 0.00 0.00 83 1020.8
20260507060048 11 155 3.2 9.7 0.00 0.00 0.00 84 1020.8
20260507054545 11 222 1.6 4.8 0.00 0.00 0.00 86 1020.8
20260507053043 11 215 3.2 8.0 0.00 0.00 0.00 87 1020.9
20260507051543 11 230 3.2 6.4 0.00 0.00 0.00 87 1020.8
20260507050041 11 270 4.8 11.3 0.00 0.00 0.00 85 1020.8
20260507044550 11 251 1.6 4.8 0.00 0.00 0.00 85 1020.7
20260507043043 11 256 1.6 3.2 0.00 0.00 0.00 84 1020.8
20260507041546 11 0 0.0 3.2 0.00 0.00 0.00 84 1020.8
20260507040049 11 347 0.0 1.6 0.00 0.00 0.00 84 1020.6
20260507034548 11 263 0.0 4.8 0.00 0.00 0.00 84 1020.6
20260507033047 11 215 0.0 3.2 0.00 0.00 0.00 85 1020.5
20260507031544 11 230 1.6 4.8 0.00 0.00 0.00 85 1020.3
20260507030041 11 230 1.6 4.8 0.00 0.00 0.00 84 1020.2
20260507024601 11 274 1.6 4.8 0.00 0.00 0.00 85 1020.3
20260507023048 11 266 3.2 6.4 0.00 0.00 0.00 85 1020.0
20260507021547 12 237 3.2 6.4 0.00 0.00 0.00 84 1020.1
20260507014602 12 347 3.2 8.0 0.00 0.00 0.00 83 1020.0
20260507013050 12 307 1.6 6.4 0.00 0.00 0.00 83 1019.9
20260507011548 12 284 1.6 9.7 0.00 0.00 0.00 82 1020.0
20260507010047 12 313 4.8 12.9 0.00 0.00 0.00 81 1020.2
20260507004546 12 288 3.2 8.0 0.00 0.00 0.00 80 1020.1
20260507003043 12 299 4.8 12.9 0.00 0.00 0.00 80 1020.2
20260507001553 12 13 3.2 12.9 0.00 0.00 0.00 80 1020.2
20260507000050 12 274 4.8 14.5 0.00 0.00 0.00 81 1020.3
20260506234553 12 238 3.2 12.9 0.00 0.00 0.00 81 1020.2
20260506233046 12 270 6.4 14.5 0.00 0.00 0.00 81 1020.2
20260506231555 12 249 11.3 17.7 0.00 0.00 0.00 80 1020.2
20260506230054 12 127 3.2 11.3 0.00 0.00 0.00 80 1020.3
20260506224549 12 184 4.8 8.0 0.00 0.00 0.00 80 1020.3
20260506223055 12 212 0.0 8.0 0.00 0.00 0.00 82 1020.5
20260506221548 12 157 4.8 11.3 0.00 0.00 0.00 83 1020.7
20260506220049 12 203 3.2 9.7 0.00 0.00 0.00 84 1020.6
20260506214546 12 118 3.2 11.3 0.00 0.00 0.00 85 1020.6
20260506213100 12 128 3.2 8.0 0.00 0.00 0.00 86 1020.6
20260506211556 11 191 4.8 11.3 0.00 0.00 0.00 88 1020.6
20260506210048 11 165 3.2 9.7 0.00 0.00 0.00 89 1020.7
20260506204555 11 251 3.2 11.3 0.00 0.00 0.00 90 1020.7
20260506203049 11 0 4.8 11.3 0.00 0.00 0.00 89 1020.6
20260506201557 11 201 3.2 9.7 0.00 0.00 0.00 89 1020.5
20260506200042 11 149 3.2 9.7 0.00 0.00 0.00 89 1020.4
20260506194557 11 121 1.6 8.0 0.00 0.00 0.00 90 1020.4
20260506193046 11 181 3.2 12.9 0.00 0.00 0.00 91 1020.3
20260506191548 10 219 3.2 11.3 0.00 0.00 0.00 91 1020.4
20260506190046 10 214 4.8 12.9 0.00 0.00 0.00 92 1020.3
20260506184551 10 210 4.8 9.7 0.00 0.00 0.00 92 1020.2
20260506183056 10 138 3.2 9.7 0.00 0.00 0.00 91 1019.9
20260506181549 10 166 4.8 9.7 0.00 0.00 0.00 92 1020.0
20260506180050 10 161 3.2 14.5 0.00 0.00 0.00 93 1020.0
20260506174547 10 226 8.0 14.5 0.00 0.00 0.00 93 1020.1
20260506173051 10 219 6.4 12.9 0.00 0.00 0.00 94 1020.0
20260506171544 10 238 9.7 12.9 0.00 0.00 0.00 93 1020.0
20260506164548 10 160 3.2 8.0 0.00 0.00 0.00 94 1019.7
20260506163058 10 0 0.0 8.0 0.00 0.00 0.00 94 1019.5
20260506161548 10 0 3.2 12.9 0.00 0.00 0.00 94 1019.9
20260506160046 10 211 3.2 9.7 0.00 0.00 0.00 94 1019.7
20260506154548 10 170 3.2 6.4 0.00 0.00 0.00 94 1019.4
20260506153041 10 230 4.8 14.5 0.00 0.00 0.00 94 1019.7
20260506151549 10 238 6.4 12.9 0.00 0.00 0.00 95 1019.6
20260506150048 10 208 3.2 6.4 0.00 0.00 0.00 95 1019.3
20260506144600 10 58 1.6 8.0 0.00 0.00 0.00 95 1018.9
20260506143045 10 161 1.6 6.4 0.00 0.00 0.00 95 1019.4